Overview Statistics Trail Chart Weather Telemetry Raw packets
 

This is the latest recevied weather packets stored in our database for station/object N1YZ. If no packets are shown the sender has not sent any weather packets the latest 10 day(s).

<< 85 86 87 88 89 90 91 >>
Time Temp. Humidity Pressure Rain* Wind** Luminosity Snow
1788029646 32.22° C 70% 1037.9 hPa 0 mm - 661 W/m² -
1788029342 32.22° C 68% 1037.9 hPa 0 mm - 679 W/m² -
1788029040 32.22° C 65% 1037.5 hPa 0 mm - 704 W/m² -
1788028740 32.22° C 68% 1037.9 hPa 0 mm - 678 W/m² -
1788028435 32.78° C 69% 1037.9 hPa 0 mm - 600 W/m² -
1788028130 32.78° C 69% 1038.1 hPa 0 mm - 444 W/m² -
1788027825 32.22° C 69% 1038.1 hPa 0 mm - 695 W/m² -
1788027524 32.22° C 65% 1038.2 hPa 0 mm - 702 W/m² -
1788027219 32.22° C 69% 1038.1 hPa 0 mm - 148 W/m² -
1788026919 31.67° C 71% 1038.2 hPa 0 mm - 715 W/m² -
1788026614 31.67° C 69% 1038.3 hPa 0 mm - 692 W/m² -
1788026309 32.22° C 72% 1038.4 hPa 0 mm - 704 W/m² -
1788026005 31.11° C 72% 1038.4 hPa 0 mm - 705 W/m² -
1788025703 31.11° C 72% 1038.5 hPa 0 mm - 124 W/m² -
1788025402 31.11° C 74% 1038.6 hPa 0 mm - 668 W/m² -
1788025098 31.11° C 77% 1038.6 hPa 0 mm - 682 W/m² -
1788024792 30.56° C 75% 1038.9 hPa 0 mm - 359 W/m² -
1788024489 30° C 77% 1038.8 hPa 0 mm - 602 W/m² -
1788024187 29.44° C 77% 1038.9 hPa 0 mm - 114 W/m² -
1788023884 30° C 75% 1039 hPa 0 mm - 68 W/m² -
1788023579 30.56° C 75% 1038.9 hPa 0 mm - 112 W/m² -
1788023274 30° C 74% 1038.9 hPa 0 mm - 686 W/m² -
1788022968 30.56° C 76% 1038.9 hPa 0 mm - 131 W/m² -
1788022666 30.56° C 75% 1039.1 hPa 0 mm - 150 W/m² -
1788022365 31.11° C 73% 1038.9 hPa 0 mm - 550 W/m² -

* Rain latest hour (hover to see other rain measurements)
** Current wind speed in m/s (hover to see current wind gust speed)